contact:dominique.lefevre@mio.osupytheas.fr, maurice.libes@osupytheas.fr, didier.mallarino@osupytheas.fr
Project:EMSO http://www.emso-fr.org/EMSO-France
Depth: 2436.0 m
Title:EMSO Ligure Ouest : Data MII capteur MICROCAT
DateTime_Computer,Latitude,Longitude,Temperature,Conductivity,Pressure,DateTime_Instrument
DateTime_Computer,Latitude,Longitude,degC,S m-1,dbar,DateTime_Instrument
2023-04-26T00:02:46Z,42.805,6.029,13.3034,4.60087,2470.777,2023-4-26T02:05:49Z
2023-04-26T00:05:49Z,42.805,6.029,13.3032,4.60087,2470.777,2023-4-26T02:08:52Z
2023-04-26T00:08:52Z,42.805,6.029,13.3034,4.60087,2470.787,2023-4-26T02:11:55Z
2023-04-26T00:11:55Z,42.805,6.029,13.3033,4.60087,2470.81,2023-4-26T02:14:58Z
2023-04-26T00:14:58Z,42.805,6.029,13.3032,4.60087,2470.754,2023-4-26T02:18:01Z
2023-04-26T00:18:01Z,42.805,6.029,13.3035,4.60087,2470.763,2023-4-26T02:21:04Z
2023-04-26T00:21:05Z,42.805,6.029,13.3031,4.60087,2470.777,2023-4-26T02:24:07Z
2023-04-26T00:24:08Z,42.805,6.029,13.3032,4.60086,2470.763,2023-4-26T02:27:10Z
2023-04-26T00:27:11Z,42.805,6.029,13.3036,4.60086,2470.763,2023-4-26T02:30:13Z
2023-04-26T00:30:14Z,42.805,6.029,13.3034,4.60087,2470.74,2023-4-26T02:33:16Z
2023-04-26T00:33:17Z,42.805,6.029,13.3031,4.60087,2470.787,2023-4-26T02:36:19Z
2023-04-26T00:36:20Z,42.805,6.029,13.3033,4.60087,2470.763,2023-4-26T02:39:23Z
2023-04-26T00:39:23Z,42.805,6.029,13.3030,4.60087,2470.777,2023-4-26T02:42:26Z
2023-04-26T00:42:26Z,42.805,6.029,13.3033,4.60087,2470.8,2023-4-26T02:45:29Z
2023-04-26T00:45:29Z,42.805,6.029,13.3030,4.60087,2470.763,2023-4-26T02:48:32Z
2023-04-26T00:48:32Z,42.805,6.029,13.3035,4.60087,2470.777,2023-4-26T02:51:35Z
2023-04-26T00:51:35Z,42.805,6.029,13.3033,4.60086,2470.763,2023-4-26T02:54:38Z
2023-04-26T00:54:38Z,42.805,6.029,13.3029,4.60087,2470.74,2023-4-26T02:57:41Z
2023-04-26T00:57:41Z,42.805,6.029,13.3033,4.60086,2470.777,2023-4-26T03:00:44Z
2023-04-26T01:00:45Z,42.805,6.029,13.3030,4.60086,2470.763,2023-4-26T03:03:47Z
2023-04-26T01:03:48Z,42.805,6.029,13.3031,4.60086,2470.787,2023-4-26T03:06:50Z
2023-04-26T01:06:51Z,42.805,6.029,13.3032,4.60085,2470.763,2023-4-26T03:09:53Z
2023-04-26T01:09:54Z,42.805,6.029,13.3031,4.60087,2470.777,2023-4-26T03:12:56Z
2023-04-26T01:12:57Z,42.805,6.029,13.3030,4.60086,2470.787,2023-4-26T03:16:00Z
2023-04-26T01:16:00Z,42.805,6.029,13.3030,4.60085,2470.777,2023-4-26T03:19:03Z
2023-04-26T01:19:03Z,42.805,6.029,13.3033,4.60085,2470.74,2023-4-26T03:22:06Z
2023-04-26T01:22:06Z,42.805,6.029,13.3034,4.60087,2470.763,2023-4-26T03:25:09Z
2023-04-26T01:25:09Z,42.805,6.029,13.3032,4.60085,2470.777,2023-4-26T03:28:12Z
2023-04-26T01:28:12Z,42.805,6.029,13.3030,4.60085,2470.74,2023-4-26T03:31:15Z
2023-04-26T01:31:15Z,42.805,6.029,13.3031,4.60085,2470.717,2023-4-26T03:34:18Z
2023-04-26T01:34:18Z,42.805,6.029,13.3031,4.60085,2470.74,2023-4-26T03:37:21Z
2023-04-26T01:37:22Z,42.805,6.029,13.3034,4.60085,2470.717,2023-4-26T03:40:24Z
2023-04-26T01:40:25Z,42.805,6.029,13.3039,4.60085,2470.74,2023-4-26T03:43:27Z
2023-04-26T01:43:28Z,42.805,6.029,13.3034,4.60085,2470.763,2023-4-26T03:46:30Z
2023-04-26T01:46:31Z,42.805,6.029,13.3032,4.60086,2470.763,2023-4-26T03:49:33Z
2023-04-26T01:49:34Z,42.805,6.029,13.3032,4.60086,2470.777,2023-4-26T03:52:37Z
2023-04-26T01:52:37Z,42.805,6.029,13.3030,4.60085,2470.73,2023-4-26T03:55:40Z
2023-04-26T01:55:40Z,42.805,6.029,13.3034,4.60086,2470.754,2023-4-26T03:58:43Z
2023-04-26T01:58:43Z,42.805,6.029,13.3032,4.60085,2470.754,2023-4-26T04:01:46Z
2023-04-26T02:01:46Z,42.805,6.029,13.3029,4.60084,2470.74,2023-4-26T04:04:49Z
2023-04-26T02:04:49Z,42.805,6.029,13.3031,4.60085,2470.777,2023-4-26T04:07:52Z
2023-04-26T02:07:52Z,42.805,6.029,13.3033,4.60085,2470.717,2023-4-26T04:10:55Z
2023-04-26T02:10:55Z,42.805,6.029,13.3033,4.60085,2470.74,2023-4-26T04:13:58Z
2023-04-26T02:13:58Z,42.805,6.029,13.3032,4.60087,2470.74,2023-4-26T04:17:01Z
2023-04-26T02:17:02Z,42.805,6.029,13.3030,4.60085,2470.74,2023-4-26T04:20:04Z
2023-04-26T02:20:05Z,42.805,6.029,13.3034,4.60085,2470.754,2023-4-26T04:23:07Z
2023-04-26T02:23:08Z,42.805,6.029,13.3033,4.60086,2470.74,2023-4-26T04:26:10Z
2023-04-26T02:26:11Z,42.805,6.029,13.3031,4.60086,2470.74,2023-4-26T04:29:14Z
2023-04-26T02:29:14Z,42.805,6.029,13.3036,4.60086,2470.73,2023-4-26T04:32:17Z
2023-04-26T02:32:17Z,42.805,6.029,13.3030,4.60086,2470.707,2023-4-26T04:35:20Z
2023-04-26T02:35:20Z,42.805,6.029,13.3029,4.60085,2470.73,2023-4-26T04:38:23Z
2023-04-26T02:38:23Z,42.805,6.029,13.3035,4.60086,2470.717,2023-4-26T04:41:26Z
2023-04-26T02:41:26Z,42.805,6.029,13.3030,4.60086,2470.763,2023-4-26T04:44:29Z
2023-04-26T02:44:29Z,42.805,6.029,13.3032,4.60086,2470.717,2023-4-26T04:47:32Z
2023-04-26T02:47:32Z,42.805,6.029,13.3031,4.60087,2470.74,2023-4-26T04:50:35Z
2023-04-26T02:50:35Z,42.805,6.029,13.3033,4.60087,2470.693,2023-4-26T04:53:38Z
2023-04-26T02:53:39Z,42.805,6.029,13.3036,4.60087,2470.754,2023-4-26T04:56:41Z
2023-04-26T02:56:42Z,42.805,6.029,13.3033,4.60087,2470.717,2023-4-26T04:59:44Z
2023-04-26T02:59:45Z,42.805,6.029,13.3032,4.60087,2470.717,2023-4-26T05:02:47Z
2023-04-26T03:02:48Z,42.805,6.029,13.3036,4.60087,2470.73,2023-4-26T05:05:50Z
2023-04-26T03:05:51Z,42.805,6.029,13.3031,4.60087,2470.707,2023-4-26T05:08:54Z
2023-04-26T03:08:54Z,42.805,6.029,13.3032,4.60087,2470.717,2023-4-26T05:11:57Z
2023-04-26T03:11:57Z,42.805,6.029,13.3033,4.60087,2470.693,2023-4-26T05:15:00Z
2023-04-26T03:15:00Z,42.805,6.029,13.3034,4.60087,2470.707,2023-4-26T05:18:03Z
2023-04-26T03:18:03Z,42.805,6.029,13.3030,4.60087,2470.717,2023-4-26T05:21:06Z
2023-04-26T03:21:06Z,42.805,6.029,13.3031,4.60087,2470.707,2023-4-26T05:24:09Z
2023-04-26T03:24:09Z,42.805,6.029,13.3033,4.60087,2470.717,2023-4-26T05:27:12Z
2023-04-26T03:27:12Z,42.805,6.029,13.3038,4.60088,2470.763,2023-4-26T05:30:15Z
2023-04-26T03:30:15Z,42.805,6.029,13.3035,4.60089,2470.73,2023-4-26T05:33:18Z
2023-04-26T03:33:19Z,42.805,6.029,13.3035,4.60089,2470.717,2023-4-26T05:36:21Z
2023-04-26T03:36:22Z,42.805,6.029,13.3035,4.60088,2470.717,2023-4-26T05:39:24Z
2023-04-26T03:39:25Z,42.805,6.029,13.3038,4.60088,2470.73,2023-4-26T05:42:27Z
2023-04-26T03:42:28Z,42.805,6.029,13.3036,4.60089,2470.693,2023-4-26T05:45:31Z
2023-04-26T03:45:31Z,42.805,6.029,13.3034,4.60090,2470.693,2023-4-26T05:48:34Z
2023-04-26T03:48:34Z,42.805,6.029,13.3034,4.60091,2470.74,2023-4-26T05:51:37Z
2023-04-26T03:51:37Z,42.805,6.029,13.3036,4.60091,2470.717,2023-4-26T05:54:40Z
2023-04-26T03:54:40Z,42.805,6.029,13.3036,4.60091,2470.717,2023-4-26T05:57:43Z
2023-04-26T03:57:43Z,42.805,6.029,13.3037,4.60091,2470.67,2023-4-26T06:00:46Z
2023-04-26T04:00:46Z,42.805,6.029,13.3032,4.60090,2470.717,2023-4-26T06:03:49Z
2023-04-26T04:03:49Z,42.805,6.029,13.3036,4.60090,2470.693,2023-4-26T06:06:52Z
2023-04-26T04:06:52Z,42.805,6.029,13.3034,4.60090,2470.693,2023-4-26T06:09:55Z
2023-04-26T04:09:56Z,42.805,6.029,13.3035,4.60090,2470.73,2023-4-26T06:12:58Z
2023-04-26T04:12:59Z,42.805,6.029,13.3031,4.60090,2470.67,2023-4-26T06:16:01Z
2023-04-26T04:16:02Z,42.805,6.029,13.3034,4.60090,2470.717,2023-4-26T06:19:04Z
2023-04-26T04:19:05Z,42.805,6.029,13.3039,4.60092,2470.717,2023-4-26T06:22:07Z
2023-04-26T04:22:08Z,42.805,6.029,13.3034,4.60091,2470.693,2023-4-26T06:25:11Z
2023-04-26T04:25:11Z,42.805,6.029,13.3036,4.60090,2470.693,2023-4-26T06:28:14Z
2023-04-26T04:28:14Z,42.805,6.029,13.3037,4.60090,2470.67,2023-4-26T06:31:17Z
2023-04-26T04:31:17Z,42.805,6.029,13.3034,4.60090,2470.693,2023-4-26T06:34:20Z
2023-04-26T04:34:20Z,42.805,6.029,13.3038,4.60090,2470.67,2023-4-26T06:37:23Z
2023-04-26T04:37:23Z,42.805,6.029,13.3034,4.60090,2470.707,2023-4-26T06:40:26Z
2023-04-26T04:40:26Z,42.805,6.029,13.3040,4.60090,2470.67,2023-4-26T06:43:29Z
2023-04-26T04:43:29Z,42.805,6.029,13.3034,4.60090,2470.693,2023-4-26T06:46:32Z
2023-04-26T04:46:32Z,42.805,6.029,13.3038,4.60091,2470.693,2023-4-26T06:49:35Z
2023-04-26T04:49:36Z,42.805,6.029,13.3036,4.60091,2470.707,2023-4-26T06:52:38Z
2023-04-26T04:52:39Z,42.805,6.029,13.3040,4.60092,2470.693,2023-4-26T06:55:41Z
2023-04-26T04:55:42Z,42.805,6.029,13.3035,4.60091,2470.693,2023-4-26T06:58:44Z
2023-04-26T04:58:45Z,42.805,6.029,13.3036,4.60091,2470.67,2023-4-26T07:01:48Z
2023-04-26T05:01:48Z,42.805,6.029,13.3037,4.60092,2470.717,2023-4-26T07:04:51Z
2023-04-26T05:04:51Z,42.805,6.029,13.3038,4.60092,2470.693,2023-4-26T07:07:54Z
2023-04-26T05:07:54Z,42.805,6.029,13.3036,4.60092,2470.693,2023-4-26T07:10:57Z
2023-04-26T05:10:57Z,42.805,6.029,13.3037,4.60092,2470.73,2023-4-26T07:14:00Z
2023-04-26T05:14:00Z,42.805,6.029,13.3036,4.60092,2470.707,2023-4-26T07:17:03Z
2023-04-26T05:17:03Z,42.805,6.029,13.3036,4.60093,2470.67,2023-4-26T07:20:06Z
2023-04-26T05:20:06Z,42.805,6.029,13.3036,4.60092,2470.693,2023-4-26T07:23:09Z
2023-04-26T05:23:09Z,42.805,6.029,13.3037,4.60092,2470.684,2023-4-26T07:26:12Z
2023-04-26T05:26:12Z,42.805,6.029,13.3043,4.60092,2470.67,2023-4-26T07:29:15Z
2023-04-26T05:29:16Z,42.805,6.029,13.3038,4.60092,2470.73,2023-4-26T07:32:18Z
2023-04-26T05:32:19Z,42.805,6.029,13.3041,4.60092,2470.67,2023-4-26T07:35:21Z
2023-04-26T05:35:22Z,42.805,6.029,13.3038,4.60092,2470.693,2023-4-26T07:38:24Z
2023-04-26T05:38:25Z,42.805,6.029,13.3043,4.60092,2470.693,2023-4-26T07:41:28Z
2023-04-26T05:41:28Z,42.805,6.029,13.3039,4.60092,2470.717,2023-4-26T07:44:31Z
2023-04-26T05:44:31Z,42.805,6.029,13.3038,4.60092,2470.693,2023-4-26T07:47:34Z
2023-04-26T05:47:34Z,42.805,6.029,13.3037,4.60092,2470.67,2023-4-26T07:50:37Z
2023-04-26T05:50:37Z,42.805,6.029,13.3040,4.60092,2470.646,2023-4-26T07:53:40Z
2023-04-26T05:53:40Z,42.805,6.029,13.3041,4.60092,2470.717,2023-4-26T07:56:43Z
2023-04-26T05:56:43Z,42.805,6.029,13.3038,4.60092,2470.67,2023-4-26T07:59:46Z
2023-04-26T05:59:46Z,42.805,6.029,13.3037,4.60092,2470.693,2023-4-26T08:02:49Z
2023-04-26T06:02:49Z,42.805,6.029,13.3042,4.60092,2470.646,2023-4-26T08:05:52Z
2023-04-26T06:05:53Z,42.805,6.029,13.3038,4.60092,2470.661,2023-4-26T08:08:55Z
2023-04-26T06:08:56Z,42.805,6.029,13.3040,4.60093,2470.693,2023-4-26T08:11:58Z
2023-04-26T06:11:59Z,42.805,6.029,13.3034,4.60093,2470.707,2023-4-26T08:15:01Z
2023-04-26T06:15:02Z,42.805,6.029,13.3041,4.60094,2470.684,2023-4-26T08:18:04Z
2023-04-26T06:18:05Z,42.805,6.029,13.3043,4.60094,2470.693,2023-4-26T08:21:08Z
2023-04-26T06:21:08Z,42.805,6.029,13.3038,4.60094,2470.693,2023-4-26T08:24:11Z
2023-04-26T06:24:11Z,42.805,6.029,13.3036,4.60093,2470.67,2023-4-26T08:27:14Z
2023-04-26T06:27:14Z,42.805,6.029,13.3039,4.60094,2470.67,2023-4-26T08:30:17Z
2023-04-26T06:30:17Z,42.805,6.029,13.3041,4.60094,2470.684,2023-4-26T08:33:20Z
2023-04-26T06:33:20Z,42.805,6.029,13.3043,4.60093,2470.646,2023-4-26T08:36:23Z
2023-04-26T06:36:23Z,42.805,6.029,13.3039,4.60092,2470.693,2023-4-26T08:39:26Z
2023-04-26T06:39:26Z,42.805,6.029,13.3040,4.60093,2470.707,2023-4-26T08:42:29Z
2023-04-26T06:42:29Z,42.805,6.029,13.3038,4.60092,2470.707,2023-4-26T08:45:32Z
2023-04-26T06:45:33Z,42.805,6.029,13.3036,4.60092,2470.684,2023-4-26T08:48:35Z
2023-04-26T06:48:36Z,42.805,6.029,13.3037,4.60091,2470.661,2023-4-26T08:51:38Z
2023-04-26T06:51:39Z,42.805,6.029,13.3040,4.60092,2470.707,2023-4-26T08:54:41Z
2023-04-26T06:54:42Z,42.805,6.029,13.3036,4.60092,2470.67,2023-4-26T08:57:45Z
2023-04-26T06:57:45Z,42.805,6.029,13.3039,4.60094,2470.646,2023-4-26T09:00:48Z
2023-04-26T07:00:48Z,42.805,6.029,13.3041,4.60093,2470.646,2023-4-26T09:03:51Z
2023-04-26T07:03:51Z,42.805,6.029,13.3036,4.60092,2470.67,2023-4-26T09:06:54Z
2023-04-26T07:06:54Z,42.805,6.029,13.3037,4.60092,2470.661,2023-4-26T09:09:57Z
2023-04-26T07:09:57Z,42.805,6.029,13.3039,4.60092,2470.67,2023-4-26T09:13:00Z
2023-04-26T07:13:00Z,42.805,6.029,13.3036,4.60092,2470.646,2023-4-26T09:16:03Z
2023-04-26T07:16:03Z,42.805,6.029,13.3034,4.60093,2470.661,2023-4-26T09:19:06Z
2023-04-26T07:19:06Z,42.805,6.029,13.3038,4.60093,2470.67,2023-4-26T09:22:09Z
2023-04-26T07:22:09Z,42.805,6.029,13.3034,4.60092,2470.656,2023-4-26T09:25:12Z
2023-04-26T07:25:13Z,42.805,6.029,13.3039,4.60093,2470.693,2023-4-26T09:28:15Z
2023-04-26T07:28:16Z,42.805,6.029,13.3041,4.60092,2470.646,2023-4-26T09:31:18Z
2023-04-26T07:31:19Z,42.805,6.029,13.3036,4.60092,2470.646,2023-4-26T09:34:21Z
2023-04-26T07:34:22Z,42.805,6.029,13.3036,4.60092,2470.693,2023-4-26T09:37:25Z
2023-04-26T07:37:25Z,42.805,6.029,13.3041,4.60092,2470.67,2023-4-26T09:40:28Z
2023-04-26T07:40:28Z,42.805,6.029,13.3037,4.60092,2470.693,2023-4-26T09:43:31Z
2023-04-26T07:43:31Z,42.805,6.029,13.3039,4.60092,2470.67,2023-4-26T09:46:34Z
2023-04-26T07:46:34Z,42.805,6.029,13.3038,4.60092,2470.67,2023-4-26T09:49:37Z
2023-04-26T07:49:37Z,42.805,6.029,13.3037,4.60092,2470.707,2023-4-26T09:52:40Z
2023-04-26T07:52:40Z,42.805,6.029,13.3034,4.60092,2470.693,2023-4-26T09:55:43Z
2023-04-26T07:55:43Z,42.805,6.029,13.3036,4.60093,2470.67,2023-4-26T09:58:46Z
2023-04-26T07:58:46Z,42.805,6.029,13.3038,4.60092,2470.693,2023-4-26T10:01:49Z
2023-04-26T08:01:50Z,42.805,6.029,13.3038,4.60091,2470.684,2023-4-26T10:04:52Z
2023-04-26T08:04:53Z,42.805,6.029,13.3039,4.60092,2470.67,2023-4-26T10:07:55Z
2023-04-26T08:07:56Z,42.805,6.029,13.3037,4.60092,2470.693,2023-4-26T10:10:58Z
2023-04-26T08:10:59Z,42.805,6.029,13.3036,4.60092,2470.693,2023-4-26T10:14:02Z
2023-04-26T08:14:02Z,42.805,6.029,13.3038,4.60092,2470.67,2023-4-26T10:17:05Z
2023-04-26T08:17:05Z,42.805,6.029,13.3034,4.60091,2470.684,2023-4-26T10:20:08Z
2023-04-26T08:20:08Z,42.805,6.029,13.3035,4.60092,2470.646,2023-4-26T10:23:11Z
2023-04-26T08:23:11Z,42.805,6.029,13.3036,4.60092,2470.73,2023-4-26T10:26:14Z
2023-04-26T08:26:14Z,42.805,6.029,13.3038,4.60091,2470.67,2023-4-26T10:29:17Z
2023-04-26T08:29:17Z,42.805,6.029,13.3037,4.60091,2470.67,2023-4-26T10:32:20Z
2023-04-26T08:32:19Z,42.805,6.029,13.3041,4.60092,2470.684,2023-4-26T10:35:22Z
2023-04-26T08:35:22Z,42.805,6.029,13.3034,4.60091,2470.717,2023-4-26T10:38:25Z
2023-04-26T08:38:25Z,42.805,6.029,13.3039,4.60091,2470.67,2023-4-26T10:41:28Z
2023-04-26T08:41:28Z,42.805,6.029,13.3037,4.60090,2470.693,2023-4-26T10:44:31Z
2023-04-26T08:44:31Z,42.805,6.029,13.3036,4.60092,2470.693,2023-4-26T10:47:34Z
2023-04-26T08:47:34Z,42.805,6.029,13.3034,4.60091,2470.67,2023-4-26T10:50:37Z
2023-04-26T08:50:37Z,42.805,6.029,13.3036,4.60091,2470.679,2023-4-26T10:53:40Z
2023-04-26T08:53:40Z,42.805,6.029,13.3040,4.60090,2470.707,2023-4-26T10:56:43Z
2023-04-26T08:56:43Z,42.805,6.029,13.3035,4.60090,2470.693,2023-4-26T10:59:46Z
2023-04-26T08:59:47Z,42.805,6.029,13.3034,4.60091,2470.67,2023-4-26T11:02:49Z
2023-04-26T09:02:50Z,42.805,6.029,13.3034,4.60091,2470.717,2023-4-26T11:05:52Z
2023-04-26T09:05:53Z,42.805,6.029,13.3039,4.60092,2470.684,2023-4-26T11:08:56Z
2023-04-26T09:08:56Z,42.805,6.029,13.3035,4.60092,2470.707,2023-4-26T11:11:59Z
2023-04-26T09:11:59Z,42.805,6.029,13.3037,4.60091,2470.707,2023-4-26T11:15:02Z
2023-04-26T09:15:02Z,42.805,6.029,13.3036,4.60090,2470.707,2023-4-26T11:18:05Z
2023-04-26T09:18:05Z,42.805,6.029,13.3033,4.60090,2470.693,2023-4-26T11:21:08Z
2023-04-26T09:21:08Z,42.805,6.029,13.3034,4.60090,2470.693,2023-4-26T11:24:11Z
2023-04-26T09:24:11Z,42.805,6.029,13.3034,4.60091,2470.717,2023-4-26T11:27:14Z
2023-04-26T09:27:14Z,42.805,6.029,13.3034,4.60089,2470.73,2023-4-26T11:30:17Z
2023-04-26T09:30:17Z,42.805,6.029,13.3038,4.60089,2470.707,2023-4-26T11:33:20Z
2023-04-26T09:33:20Z,42.805,6.029,13.3034,4.60090,2470.67,2023-4-26T11:36:23Z
2023-04-26T09:36:24Z,42.805,6.029,13.3036,4.60090,2470.693,2023-4-26T11:39:26Z
2023-04-26T09:39:27Z,42.805,6.029,13.3038,4.60091,2470.693,2023-4-26T11:42:29Z
2023-04-26T09:42:30Z,42.805,6.029,13.3037,4.60091,2470.693,2023-4-26T11:45:33Z
2023-04-26T09:45:33Z,42.805,6.029,13.3034,4.60090,2470.707,2023-4-26T11:48:36Z
2023-04-26T09:48:36Z,42.805,6.029,13.3037,4.60091,2470.707,2023-4-26T11:51:39Z
2023-04-26T09:51:39Z,42.805,6.029,13.3036,4.60089,2470.684,2023-4-26T11:54:42Z
2023-04-26T09:54:42Z,42.805,6.029,13.3032,4.60089,2470.67,2023-4-26T11:57:45Z
2023-04-26T09:57:45Z,42.805,6.029,13.3039,4.60089,2470.656,2023-4-26T12:00:48Z
2023-04-26T10:00:48Z,42.805,6.029,13.3033,4.60089,2470.67,2023-4-26T12:03:51Z
2023-04-26T10:03:51Z,42.805,6.029,13.3032,4.60089,2470.707,2023-4-26T12:06:54Z
2023-04-26T10:06:54Z,42.805,6.029,13.3032,4.60089,2470.707,2023-4-26T12:09:57Z
2023-04-26T10:09:57Z,42.805,6.029,13.3036,4.60089,2470.67,2023-4-26T12:13:00Z
2023-04-26T10:13:01Z,42.805,6.029,13.3034,4.60089,2470.67,2023-4-26T12:16:03Z
2023-04-26T10:16:04Z,42.805,6.029,13.3035,4.60089,2470.707,2023-4-26T12:19:07Z
2023-04-26T10:19:07Z,42.805,6.029,13.3034,4.60089,2470.679,2023-4-26T12:22:10Z
2023-04-26T10:22:10Z,42.805,6.029,13.3036,4.60089,2470.707,2023-4-26T12:25:13Z
2023-04-26T10:25:13Z,42.805,6.029,13.3036,4.60092,2470.707,2023-4-26T12:28:16Z
2023-04-26T10:28:16Z,42.805,6.029,13.3034,4.60089,2470.693,2023-4-26T12:31:19Z
2023-04-26T10:31:19Z,42.805,6.029,13.3034,4.60090,2470.717,2023-4-26T12:34:22Z
2023-04-26T10:34:22Z,42.805,6.029,13.3035,4.60090,2470.717,2023-4-26T12:37:25Z
2023-04-26T10:37:25Z,42.805,6.029,13.3036,4.60090,2470.73,2023-4-26T12:40:28Z
2023-04-26T10:40:28Z,42.805,6.029,13.3036,4.60089,2470.67,2023-4-26T12:43:31Z
2023-04-26T10:43:31Z,42.805,6.029,13.3034,4.60089,2470.67,2023-4-26T12:46:34Z
2023-04-26T10:46:34Z,42.805,6.029,13.3035,4.60088,2470.693,2023-4-26T12:49:37Z
2023-04-26T10:49:38Z,42.805,6.029,13.3036,4.60089,2470.707,2023-4-26T12:52:40Z
2023-04-26T10:52:41Z,42.805,6.029,13.3034,4.60088,2470.693,2023-4-26T12:55:44Z
2023-04-26T10:55:44Z,42.805,6.029,13.3033,4.60088,2470.693,2023-4-26T12:58:47Z
2023-04-26T10:58:47Z,42.805,6.029,13.3034,4.60089,2470.67,2023-4-26T13:01:50Z
2023-04-26T11:01:50Z,42.805,6.029,13.3031,4.60089,2470.684,2023-4-26T13:04:53Z
2023-04-26T11:04:53Z,42.805,6.029,13.3034,4.60088,2470.67,2023-4-26T13:07:56Z
2023-04-26T11:07:56Z,42.805,6.029,13.3036,4.60089,2470.693,2023-4-26T13:10:59Z
2023-04-26T11:10:59Z,42.805,6.029,13.3039,4.60089,2470.684,2023-4-26T13:14:02Z
2023-04-26T11:14:02Z,42.805,6.029,13.3034,4.60089,2470.67,2023-4-26T13:17:05Z
2023-04-26T11:17:05Z,42.805,6.029,13.3034,4.60088,2470.679,2023-4-26T13:20:08Z
2023-04-26T11:20:08Z,42.805,6.029,13.3035,4.60089,2470.67,2023-4-26T13:23:11Z
2023-04-26T11:23:11Z,42.805,6.029,13.3033,4.60090,2470.693,2023-4-26T13:26:14Z
2023-04-26T11:26:15Z,42.805,6.029,13.3036,4.60089,2470.684,2023-4-26T13:29:17Z
2023-04-26T11:29:18Z,42.805,6.029,13.3035,4.60088,2470.707,2023-4-26T13:32:21Z
2023-04-26T11:32:21Z,42.805,6.029,13.3034,4.60088,2470.684,2023-4-26T13:35:24Z
2023-04-26T11:35:24Z,42.805,6.029,13.3035,4.60088,2470.67,2023-4-26T13:38:27Z
2023-04-26T11:38:27Z,42.805,6.029,13.3034,4.60088,2470.693,2023-4-26T13:41:30Z
2023-04-26T11:41:30Z,42.805,6.029,13.3036,4.60088,2470.684,2023-4-26T13:44:33Z
2023-04-26T11:44:33Z,42.805,6.029,13.3035,4.60089,2470.693,2023-4-26T13:47:36Z
2023-04-26T11:47:36Z,42.805,6.029,13.3034,4.60088,2470.656,2023-4-26T13:50:39Z
2023-04-26T11:50:39Z,42.805,6.029,13.3034,4.60089,2470.717,2023-4-26T13:53:42Z
2023-04-26T11:53:42Z,42.805,6.029,13.3036,4.60090,2470.646,2023-4-26T13:56:45Z
2023-04-26T11:56:45Z,42.805,6.029,13.3031,4.60089,2470.73,2023-4-26T13:59:48Z
2023-04-26T11:59:48Z,42.805,6.029,13.3034,4.60087,2470.693,2023-4-26T14:02:51Z
2023-04-26T12:02:52Z,42.805,6.029,13.3033,4.60087,2470.67,2023-4-26T14:05:54Z
2023-04-26T12:05:55Z,42.805,6.029,13.3037,4.60087,2470.67,2023-4-26T14:08:58Z
2023-04-26T12:08:58Z,42.805,6.029,13.3036,4.60089,2470.67,2023-4-26T14:12:01Z
2023-04-26T12:12:01Z,42.805,6.029,13.3031,4.60087,2470.684,2023-4-26T14:15:04Z
2023-04-26T12:15:04Z,42.805,6.029,13.3034,4.60088,2470.67,2023-4-26T14:18:07Z
2023-04-26T12:18:07Z,42.805,6.029,13.3032,4.60087,2470.67,2023-4-26T14:21:10Z
2023-04-26T12:21:10Z,42.805,6.029,13.3035,4.60089,2470.67,2023-4-26T14:24:13Z
2023-04-26T12:24:13Z,42.805,6.029,13.3034,4.60088,2470.67,2023-4-26T14:27:16Z
2023-04-26T12:27:16Z,42.805,6.029,13.3034,4.60087,2470.661,2023-4-26T14:30:19Z
2023-04-26T12:30:18Z,42.805,6.029,13.3032,4.60087,2470.661,2023-4-26T14:33:21Z
2023-04-26T12:33:21Z,42.805,6.029,13.3036,4.60087,2470.67,2023-4-26T14:36:24Z
2023-04-26T12:36:25Z,42.805,6.029,13.3031,4.60087,2470.67,2023-4-26T14:39:27Z
2023-04-26T12:39:28Z,42.805,6.029,13.3034,4.60087,2470.646,2023-4-26T14:42:31Z
2023-04-26T12:42:31Z,42.805,6.029,13.3031,4.60087,2470.637,2023-4-26T14:45:34Z
2023-04-26T12:45:34Z,42.805,6.029,13.3030,4.60087,2470.67,2023-4-26T14:48:37Z
2023-04-26T12:48:37Z,42.805,6.029,13.3030,4.60087,2470.624,2023-4-26T14:51:40Z
2023-04-26T12:51:40Z,42.805,6.029,13.3031,4.60087,2470.67,2023-4-26T14:54:43Z
2023-04-26T12:54:43Z,42.805,6.029,13.3032,4.60087,2470.684,2023-4-26T14:57:46Z
2023-04-26T12:57:46Z,42.805,6.029,13.3034,4.60087,2470.646,2023-4-26T15:00:49Z
2023-04-26T13:00:49Z,42.805,6.029,13.3034,4.60089,2470.684,2023-4-26T15:03:52Z
2023-04-26T13:03:52Z,42.805,6.029,13.3032,4.60087,2470.646,2023-4-26T15:06:55Z
2023-04-26T13:06:55Z,42.805,6.029,13.3033,4.60087,2470.67,2023-4-26T15:09:58Z
2023-04-26T13:09:58Z,42.805,6.029,13.3034,4.60087,2470.661,2023-4-26T15:13:01Z
2023-04-26T13:13:02Z,42.805,6.029,13.3032,4.60087,2470.646,2023-4-26T15:16:04Z
2023-04-26T13:16:05Z,42.805,6.029,13.3036,4.60087,2470.646,2023-4-26T15:19:08Z
2023-04-26T13:19:08Z,42.805,6.029,13.3035,4.60087,2470.637,2023-4-26T15:22:11Z
2023-04-26T13:22:11Z,42.805,6.029,13.3033,4.60087,2470.646,2023-4-26T15:25:14Z
2023-04-26T13:25:14Z,42.805,6.029,13.3036,4.60087,2470.624,2023-4-26T15:28:17Z
2023-04-26T13:28:17Z,42.805,6.029,13.3032,4.60087,2470.684,2023-4-26T15:31:20Z
2023-04-26T13:31:20Z,42.805,6.029,13.3033,4.60087,2470.661,2023-4-26T15:34:23Z
2023-04-26T13:34:23Z,42.805,6.029,13.3034,4.60087,2470.624,2023-4-26T15:37:26Z
2023-04-26T13:37:26Z,42.805,6.029,13.3032,4.60087,2470.661,2023-4-26T15:40:29Z
2023-04-26T13:40:29Z,42.805,6.029,13.3037,4.60087,2470.624,2023-4-26T15:43:32Z
2023-04-26T13:43:32Z,42.805,6.029,13.3032,4.60088,2470.661,2023-4-26T15:46:35Z
2023-04-26T13:46:35Z,42.805,6.029,13.3034,4.60088,2470.646,2023-4-26T15:49:38Z
2023-04-26T13:49:39Z,42.805,6.029,13.3032,4.60087,2470.624,2023-4-26T15:52:41Z
2023-04-26T13:52:42Z,42.805,6.029,13.3032,4.60087,2470.646,2023-4-26T15:55:45Z
2023-04-26T13:55:45Z,42.805,6.029,13.3036,4.60087,2470.624,2023-4-26T15:58:48Z
2023-04-26T13:58:48Z,42.805,6.029,13.3031,4.60088,2470.637,2023-4-26T16:01:51Z
2023-04-26T14:01:51Z,42.805,6.029,13.3028,4.60087,2470.661,2023-4-26T16:04:54Z
2023-04-26T14:04:54Z,42.805,6.029,13.3033,4.60087,2470.624,2023-4-26T16:07:57Z
2023-04-26T14:07:57Z,42.805,6.029,13.3034,4.60087,2470.624,2023-4-26T16:11:00Z
2023-04-26T14:11:00Z,42.805,6.029,13.3030,4.60087,2470.637,2023-4-26T16:14:03Z
2023-04-26T14:14:03Z,42.805,6.029,13.3034,4.60087,2470.637,2023-4-26T16:17:06Z
2023-04-26T14:17:06Z,42.805,6.029,13.3036,4.60087,2470.624,2023-4-26T16:20:09Z
2023-04-26T14:20:09Z,42.805,6.029,13.3035,4.60089,2470.614,2023-4-26T16:23:12Z
2023-04-26T14:23:12Z,42.805,6.029,13.3033,4.60087,2470.624,2023-4-26T16:26:15Z
2023-04-26T14:26:16Z,42.805,6.029,13.3029,4.60087,2470.637,2023-4-26T16:29:18Z
2023-04-26T14:29:19Z,42.805,6.029,13.3033,4.60087,2470.637,2023-4-26T16:32:22Z
2023-04-26T14:32:22Z,42.805,6.029,13.3034,4.60087,2470.624,2023-4-26T16:35:25Z
2023-04-26T14:35:25Z,42.805,6.029,13.3035,4.60087,2470.614,2023-4-26T16:38:28Z
2023-04-26T14:38:28Z,42.805,6.029,13.3030,4.60087,2470.624,2023-4-26T16:41:31Z
2023-04-26T14:41:31Z,42.805,6.029,13.3034,4.60087,2470.624,2023-4-26T16:44:34Z
2023-04-26T14:44:34Z,42.805,6.029,13.3031,4.60087,2470.614,2023-4-26T16:47:37Z
2023-04-26T14:47:37Z,42.805,6.029,13.3034,4.60087,2470.614,2023-4-26T16:50:40Z
2023-04-26T14:50:40Z,42.805,6.029,13.3034,4.60088,2470.614,2023-4-26T16:53:43Z
2023-04-26T14:53:43Z,42.805,6.029,13.3033,4.60087,2470.646,2023-4-26T16:56:46Z
2023-04-26T14:56:46Z,42.805,6.029,13.3032,4.60087,2470.6,2023-4-26T16:59:49Z
2023-04-26T14:59:49Z,42.805,6.029,13.3032,4.60087,2470.637,2023-4-26T17:02:52Z
2023-04-26T15:02:53Z,42.805,6.029,13.3034,4.60087,2470.6,2023-4-26T17:05:56Z
2023-04-26T15:05:56Z,42.805,6.029,13.3036,4.60087,2470.614,2023-4-26T17:08:59Z
2023-04-26T15:08:59Z,42.805,6.029,13.3034,4.60089,2470.6,2023-4-26T17:12:02Z
2023-04-26T15:12:02Z,42.805,6.029,13.3031,4.60088,2470.614,2023-4-26T17:15:05Z
2023-04-26T15:15:05Z,42.805,6.029,13.3037,4.60090,2470.637,2023-4-26T17:18:08Z